EW6500 Weather Reports


time (UTC)temp
C
wind
direction
speed
KPH
gust
KPH
rain 1hr
cm
rain 24hr
cm
rain mn
cm
humidity
%
barometer
mb
20260506034605 17 70 1.6 8.0 0.00 0.00 0.00 66 1030.8
20260506033044 17 42 3.2 6.4 0.00 0.00 0.00 66 1031.1
20260506031549 16 54 3.2 14.5 0.00 0.00 0.00 68 1031.4
20260506030039 16 122 1.6 14.5 0.00 0.00 0.00 69 1031.4
20260506024536 16 36 3.2 14.5 0.00 0.00 0.00 69 1031.5
20260506023034 15 87 4.8 17.7 0.00 0.00 0.00 72 1031.6
20260506021529 15 79 3.2 14.5 0.00 0.00 0.00 76 1031.7
20260506020027 13 69 1.6 8.0 0.00 0.00 0.00 83 1031.9
20260506014523 12 300 0.0 4.8 0.00 0.00 0.00 89 1032.0
20260506013021 11 298 1.6 6.4 0.00 0.00 0.00 94 1032.0
20260506011518 10 238 1.6 3.2 0.00 0.00 0.00 94 1032.1
20260506010029 9 238 0.0 3.2 0.00 0.00 0.00 95 1032.1
20260506004508 8 238 1.6 4.8 0.00 0.00 0.00 94 1031.9
20260506003008 8 238 0.0 0.0 0.00 0.00 0.00 94 1032.0
20260506001506 7 238 0.0 0.0 0.00 0.00 0.00 94 1031.9
20260506000005 7 238 0.0 0.0 0.00 0.00 0.00 94 1031.8
20260505234504 6 238 0.0 0.0 0.00 0.00 0.00 93 1031.7
20260505233008 6 238 0.0 0.0 0.00 0.00 0.00 93 1031.5
20260505231601 6 238 0.0 0.0 0.00 0.00 0.00 93 1031.3
20260505230100 6 238 0.0 1.6 0.00 0.00 0.00 93 1031.2
20260505224557 6 237 0.0 0.0 0.00 0.00 0.00 93 1031.0
20260505223056 6 237 0.0 1.6 0.00 0.00 0.00 92 1030.8
20260505221555 6 237 0.0 0.0 0.00 0.00 0.00 92 1030.7
20260505220051 6 237 0.0 0.0 0.00 0.00 0.00 92 1030.6
20260505214601 7 237 0.0 0.0 0.00 0.00 0.00 92 1030.5
20260505213047 7 237 0.0 1.6 0.00 0.00 0.00 92 1030.3
20260505211547 7 237 0.0 0.0 0.00 0.00 0.00 92 1030.1
20260505210044 7 237 0.0 0.0 0.00 0.00 0.00 92 1029.9
20260505204540 7 237 0.0 0.0 0.00 0.00 0.00 92 1029.8
20260505203040 7 237 0.0 0.0 0.00 0.00 0.00 91 1029.8
20260505201548 7 237 0.0 0.0 0.00 0.00 0.00 92 1029.7
20260505200035 7 237 0.0 0.0 0.00 0.00 0.00 91 1029.6
20260505194535 7 237 0.0 0.0 0.00 0.00 0.00 91 1029.5
20260505193032 8 237 0.0 0.0 0.00 0.00 0.00 92 1029.5
20260505191532 8 237 0.0 0.0 0.00 0.00 0.00 91 1029.5
20260505190038 8 237 0.0 0.0 0.00 0.00 0.00 91 1029.5
20260505184529 8 237 0.0 0.0 0.00 0.00 0.00 90 1029.6
20260505183031 8 237 0.0 0.0 0.00 0.00 0.00 90 1029.5
20260505181532 8 237 0.0 0.0 0.00 0.00 0.00 90 1029.5
20260505180024 8 237 0.0 0.0 0.00 0.00 0.00 90 1029.5
20260505174523 8 237 0.0 0.0 0.00 0.00 0.00 90 1029.5
20260505173034 8 237 0.0 0.0 0.00 0.00 0.00 90 1029.6
20260505171532 8 237 0.0 0.0 0.00 0.00 0.00 90 1029.6
20260505170020 8 237 0.0 0.0 0.00 0.00 0.00 89 1029.5
20260505164518 8 237 0.0 0.0 0.00 0.00 0.00 89 1029.4
20260505163016 8 237 0.0 0.0 0.00 0.00 0.00 88 1029.3
20260505161515 9 237 0.0 0.0 0.00 0.00 0.00 88 1029.3
20260505153013 10 237 0.0 0.0 0.00 0.00 0.00 85 1029.3
20260505151509 10 237 0.0 0.0 0.00 0.00 0.00 85 1029.2
20260505124503 12 76 0.0 3.2 0.00 0.00 0.00 79 1028.7
20260505123003 12 75 0.0 4.8 0.00 0.00 0.00 78 1028.4
20260505121502 12 76 1.6 3.2 0.00 0.00 0.00 78 1028.3
20260505120004 12 81 0.0 4.8 0.00 0.00 0.00 78 1028.2
20260505114503 13 88 0.0 3.2 0.00 0.00 0.00 77 1028.1
20260505113000 13 55 0.0 6.4 0.00 0.00 0.00 76 1027.9
20260505111600 13 97 0.0 4.8 0.00 0.00 0.00 76 1027.9
20260505101558 15 70 1.6 4.8 0.00 0.00 0.00 71 1027.3
20260505100058 15 211 0.0 3.2 0.00 0.00 0.00 68 1027.1
20260505094556 17 211 0.0 1.6 0.00 0.00 0.00 64 1027.1
20260505093057 18 211 0.0 1.6 0.00 0.00 0.00 61 1026.9
20260505091556 19 211 0.0 1.6 0.00 0.00 0.00 58 1026.7
20260505090054 20 211 0.0 3.2 0.00 0.00 0.00 57 1026.6
20260505084553 20 211 0.0 3.2 0.00 0.00 0.00 57 1026.4
20260505083052 21 204 0.0 3.2 0.00 0.00 0.00 55 1026.4
20260505081551 21 213 0.0 3.2 0.00 0.00 0.00 56 1026.3
20260505080049 20 224 1.6 4.8 0.00 0.00 0.00 57 1026.3
20260505074554 21 253 0.0 4.8 0.00 0.00 0.00 55 1026.2
20260505073101 21 252 0.0 4.8 0.00 0.00 0.00 55 1026.2
20260505071551 20 223 1.6 6.4 0.00 0.00 0.00 58 1026.2
20260505070043 20 198 1.6 4.8 0.00 0.00 0.00 59 1026.2
20260505064544 20 198 1.6 4.8 0.00 0.00 0.00 56 1026.2
20260505063039 21 184 0.0 8.0 0.00 0.00 0.00 59 1026.3
20260505061548 20 295 0.0 6.4 0.00 0.00 0.00 56 1026.2
20260505060036 20 67 1.6 4.8 0.00 0.00 0.00 57 1026.3
20260505054556 20 62 1.6 3.2 0.00 0.00 0.00 61 1026.3
20260505053033 20 165 0.0 4.8 0.00 0.00 0.00 62 1026.4
20260505051527 19 131 0.0 3.2 0.00 0.00 0.00 65 1026.5
20260505041519 18 117 1.6 4.8 0.00 0.00 0.00 67 1027.4
20260505040019 18 104 1.6 4.8 0.00 0.00 0.00 65 1027.6